Location: Caracas
(10.5033°N, 66.8422°W)
Time: 06:19:35
(UTC-04:00)

Hubble Space Telescope - Visible Passes

Search period start: 25 April 2018 00:00
Search period end: 05 May 2018 00:00
Orbit: 537 x 541 km, 28.5° (Epoch: 24 April)

Date Brightness Start Highest point End Pass type
(mag) Time Alt. Az. Time Alt. Az. Time Alt. Az.
25 Apr 2.4 04:32:15 25° SSE 04:32:15 25° SSE 04:34:12 10° SE visible
25 Apr 3.1 19:47:25 10° WNW 19:50:31 20° NNW 19:53:38 10° NNE visible
26 Apr 3.4 04:23:26 11° SSE 04:23:26 11° SSE 04:23:38 10° SSE visible
26 Apr 3.4 19:37:41 10° WNW 19:40:19 16° NNW 19:42:58 10° NNE visible
27 Apr 3.5 19:28:07 10° NW 19:30:09 13° NNW 19:32:11 10° NNE visible
28 Apr 3.6 19:18:53 10° NNW 19:20:00 11° NNW 19:21:07 10° N visible
